Theta_e
312 313 313 314 315 316 317 317 317 317 318 319 318 318 319 318 311 311 318 318 320 318 314 312 316 317 316 314 314 314 311 313 314 317 322 324 329 326 323 333 332 333 333 331 331
309 309 309 309 308 311 314 315 316 317 317 318 317 317 317 319 314 316 316 318 319 318 313 314 315 315 313 314 313 312 311 314 317 317 317 325 325 325 327 325 330 333 331 332 330
309 309 308 308 307 305 304 308 314 316 317 317 317 317 316 318 319 321 319 317 318 317 312 314 317 314 313 313 314 313 313 315 317 318 316 317 325 327 326 326 330 329 331 330 327
307 307 307 308 308 308 306 303 307 314 316 316 316 316 315 316 320 322 317 317 317 313 312 316 314 313 313 312 313 315 315 315 316 318 319 321 327 332 333 335 332 330 330 330 327
307 307 307 306 307 308 307 306 303 310 314 314 315 316 316 318 319 319 318 317 314 312 315 315 313 313 313 314 316 317 316 316 316 318 320 325 328 330 333 331 329 331 329 329 324
307 307 307 307 306 306 307 307 305 304 311 313 314 315 317 319 313 318 318 316 314 312 314 315 314 313 317 318 317 317 317 317 317 317 322 326 325 325 330 331 331 330 328 325 323
306 307 306 306 307 306 306 306 306 305 306 311 313 315 316 317 309 317 317 320 316 315 313 316 316 317 317 318 319 319 317 316 316 323 325 324 326 325 324 323 330 330 324 324 323
304 305 307 306 306 306 306 306 305 305 304 311 313 314 316 309 312 315 316 316 319 315 315 316 318 317 318 317 318 317 316 316 316 322 324 322 326 325 322 324 326 324 325 325 323
303 304 305 307 306 306 306 306 303 301 307 312 314 314 319 313 314 314 315 316 319 318 316 316 317 316 316 317 316 316 317 316 320 323 325 324 326 325 323 326 323 322 324 325 323
303 303 303 304 306 306 306 305 299 306 311 316 316 316 317 314 316 315 315 314 319 315 315 316 315 315 313 315 318 319 318 319 323 323 325 326 325 325 324 326 322 323 327 327 324
304 303 302 303 305 306 306 305 313 317 317 320 318 314 316 317 317 315 315 314 318 315 316 316 315 315 313 315 318 318 317 318 321 323 325 329 327 324 322 326 324 325 324 328 327
304 304 303 302 304 306 305 307 311 310 315 317 320 320 319 318 317 315 314 314 319 319 315 317 317 316 317 317 318 320 318 316 320 324 324 322 328 324 324 326 322 319 325 323 326
303 303 303 301 305 306 305 306 305 309 314 313 314 313 312 311 311 313 313 313 320 319 318 317 318 318 318 320 321 319 317 317 319 321 321 319 320 328 328 329 325 318 319 321 324
304 303 303 301 305 306 306 313 315 316 318 312 309 311 311 311 313 313 315 314 318 320 319 318 318 319 319 321 319 318 317 319 322 321 321 320 323 331 332 331 328 324 319 320 323
303 304 303 301 305 306 309 308 313 319 303 307 310 311 311 311 315 315 315 314 316 318 317 318 319 319 320 321 320 320 320 321 322 322 319 319 324 323 331 331 329 327 325 322 323
303 303 303 303 301 304 305 306 314 317 319 309 317 317 317 313 314 315 314 313 316 317 317 317 317 318 319 321 320 318 322 323 323 321 321 320 321 320 328 325 328 327 327 324 324
303 303 303 302 303 305 308 310 317 316 306 306 318 318 318 318 317 315 315 314 314 319 320 319 318 319 319 320 320 318 321 323 323 322 322 328 328 322 321 322 327 325 327 326 323
303 303 303 303 302 303 306 313 316 305 307 309 310 312 319 317 318 318 317 316 314 317 318 320 321 319 319 319 319 318 319 323 326 328 330 328 330 322 322 320 320 320 327 326 325
304 303 304 303 302 304 309 313 309 307 306 304 305 307 318 319 319 318 317 317 316 315 318 319 319 319 319 319 319 321 321 320 330 330 329 329 327 323 322 319 317 317 317 322 325
305 304 304 302 303 305 309 310 310 309 306 306 307 309 312 317 319 319 318 317 317 316 316 319 321 320 320 318 318 319 321 325 329 332 333 331 330 327 322 322 319 317 316 318 319
305 305 303 303 304 305 307 309 307 308 309 309 306 307 308 310 311 316 319 318 316 317 317 317 318 320 321 321 320 320 320 321 327 328 328 325 325 321 323 322 321 317 318 319 321
305 305 303 303 306 305 306 307 307 307 308 308 309 309 309 310 310 312 321 321 318 317 318 317 319 319 320 321 320 319 319 320 325 327 326 322 324 322 320 319 319 319 317 316 318
305 304 304 304 306 305 305 306 305 307 308 309 309 309 309 310 311 317 321 321 321 321 317 317 318 319 322 320 320 320 319 320 321 323 326 324 325 322 321 320 319 316 318 317 316
303 305 306 305 304 305 305 306 307 306 307 307 307 308 308 309 310 318 320 321 320 322 320 318 318 318 320 321 321 322 321 320 319 322 322 324 326 324 322 321 319 320 320 319 315
302 303 305 307 306 305 305 305 307 307 307 306 306 307 309 309 311 313 319 320 319 319 322 322 320 319 318 320 321 323 322 320 320 321 326 324 324 321 320 319 319 321 322 322 319
299 305 305 305 306 305 306 306 306 308 307 308 307 307 308 308 309 311 318 321 322 322 322 322 321 320 320 319 320 320 320 320 320 321 324 324 323 321 320 318 319 320 320 320 318
302 302 305 305 307 307 306 306 307 306 307 307 308 307 308 309 309 314 319 319 321 321 320 321 322 321 320 320 321 321 320 319 320 320 320 321 319 317 318 321 319 318 318 318 317
Wind_Speed
19 19 20 20 21 22 21 22 22 23 25 26 28 30 32 34 41 23 7 8 6 7 6 6 9 11 20 6 8 3 3 8 14 6 1 6 5 5 10 4 8 7 4 6 11
15 17 18 20 21 22 23 23 22 22 23 24 27 29 32 35 35 18 11 12 9 7 7 8 6 13 5 7 5 3 3 11 10 5 6 13 9 6 5 17 1 3 5 8 14
15 16 17 18 18 18 19 21 22 22 23 23 26 28 30 31 7 4 6 15 10 8 11 10 15 6 7 5 11 8 6 10 8 5 8 6 7 6 7 2 7 7 7 9 13
17 17 18 19 20 20 20 21 21 21 22 23 24 26 29 9 5 3 7 10 8 8 7 6 7 5 5 8 8 5 5 7 7 4 5 9 4 10 9 11 8 8 8 7 9
17 18 19 20 21 22 23 23 22 21 21 22 21 22 17 4 11 14 8 7 9 10 10 8 8 7 9 6 8 4 6 7 9 5 4 14 16 8 13 4 4 8 7 9 12
18 19 20 21 21 23 25 25 25 23 21 20 20 18 3 10 12 14 8 9 11 13 11 16 9 8 6 8 7 6 5 7 9 9 4 7 6 4 6 12 7 7 4 9 11
18 19 20 21 23 25 27 27 27 26 22 20 18 12 8 19 14 10 13 13 13 16 9 22 21 2 6 8 7 13 8 7 13 3 3 7 5 4 4 10 6 9 6 8 10
20 20 20 21 22 26 30 32 31 29 23 19 15 7 9 19 17 23 18 23 18 18 25 24 9 4 2 7 8 8 7 4 12 9 2 6 1 3 6 6 12 9 8 10 8
21 19 19 20 21 24 30 36 33 24 17 13 8 7 9 14 12 22 22 17 21 23 20 15 3 3 6 4 6 5 10 11 11 7 6 3 5 6 5 8 12 11 11 10 9
19 19 20 22 21 23 28 38 27 20 8 5 8 5 9 5 8 8 20 21 10 6 5 5 2 4 4 2 6 9 6 3 1 4 4 4 7 5 4 8 16 13 12 13 13
20 18 20 19 20 20 26 16 2 1 6 9 9 7 13 15 23 10 13 14 13 6 9 6 4 10 11 13 16 14 13 8 6 8 7 12 7 12 7 1 15 13 10 15 14
21 19 18 17 18 16 18 5 8 4 10 13 19 22 31 24 14 19 19 8 10 11 7 8 15 13 16 17 15 13 10 7 7 2 4 6 15 10 8 7 9 15 12 9 13
20 20 18 16 15 17 20 19 24 30 5 15 23 15 19 15 22 22 9 15 7 11 10 13 11 18 19 18 14 13 5 6 3 5 7 6 0 9 10 11 13 15 16 14 17
20 17 16 13 11 16 8 14 16 14 5 8 9 9 13 13 10 31 22 15 10 17 14 12 17 19 20 16 9 6 8 5 4 2 4 2 4 11 19 19 19 17 17 18 17
20 17 14 10 15 8 10 23 21 1 5 9 5 7 9 17 7 16 34 9 18 18 9 16 7 14 16 11 6 9 6 4 2 6 4 8 2 9 17 15 20 19 19 19 21
21 18 14 11 17 23 24 28 12 2 11 6 6 6 6 18 13 5 15 14 7 14 15 15 13 15 15 10 8 7 3 2 3 1 4 7 1 5 12 8 16 19 20 20 22
21 20 18 15 6 12 15 8 2 7 6 6 5 9 6 6 17 18 9 11 12 15 17 16 19 18 9 6 5 6 3 1 3 3 6 8 3 7 9 10 21 19 20 21 21
20 20 20 20 20 15 13 1 9 7 17 4 3 10 9 8 11 13 16 15 16 11 6 13 13 16 10 12 9 8 7 5 4 2 4 7 4 6 11 8 7 10 21 19 20
20 20 19 22 22 11 3 10 9 9 13 16 17 13 9 9 7 13 15 15 12 18 14 9 18 8 16 6 7 5 4 8 7 2 3 3 8 9 13 6 6 7 9 15 16
20 14 16 26 20 11 5 20 15 11 18 17 13 7 5 3 7 7 8 10 17 19 20 5 6 16 18 9 9 10 4 3 2 4 2 5 6 6 1 6 2 6 7 4 8
19 4 13 28 21 4 12 15 18 17 18 8 12 12 16 14 7 11 9 10 9 17 20 17 13 9 2 4 6 4 7 4 7 5 5 2 4 6 7 3 3 7 9 8 6
7 5 22 33 8 6 21 13 13 10 18 16 8 9 12 15 11 14 4 9 8 10 19 15 4 12 18 5 8 12 11 8 5 5 3 5 6 3 8 6 7 9 7 8 7
4 3 22 28 11 17 19 26 23 20 15 9 14 12 12 16 8 6 5 9 16 6 12 9 14 9 8 8 5 9 7 6 5 5 8 6 5 6 4 8 9 8 1 5 8
5 6 4 12 12 21 20 22 23 10 21 25 18 15 23 20 15 6 4 6 15 11 22 16 10 14 17 5 6 8 9 13 12 4 5 6 4 2 8 6 7 4 4 5 7
5 5 7 14 22 19 18 7 23 18 16 11 15 24 20 11 16 8 5 6 8 14 12 6 11 11 15 13 13 11 16 15 14 15 11 6 7 8 10 11 6 6 1 3 5
6 6 8 5 14 23 21 26 26 16 16 18 22 21 16 18 20 13 6 3 1 9 7 9 6 7 5 9 16 18 15 18 15 5 11 12 13 14 15 7 9 12 9 8 9
11 11 7 13 13 16 28 34 27 15 19 22 20 19 19 27 13 8 1 8 7 4 7 6 7 2 13 5 6 15 19 13 6 11 11 10 11 9 6 10 10 11 14 12 9
Wind_Direction
312 311 311 309 307 307 310 314 318 320 321 326 328 329 331 331 322 326 235 225 236 240 270 268 243 248 247 253 266 273 338 280 278 302 56 132 75 338 54 46 63 350 355 120 140
322 318 315 312 309 304 305 307 310 315 319 322 326 328 330 332 322 273 244 212 220 254 245 225 234 228 247 261 263 163 176 256 268 23 39 101 120 172 76 17 313 158 115 123 95
325 324 322 323 325 324 322 315 307 309 314 319 324 328 328 331 302 261 215 215 229 250 237 264 281 260 255 263 266 257 216 268 294 77 63 348 78 181 79 208 182 190 128 126 109
313 317 320 320 322 324 327 324 316 306 309 315 322 327 330 326 286 337 171 196 225 218 225 277 280 272 262 263 269 265 272 291 296 50 47 58 89 65 47 53 78 122 141 137 116
307 311 314 315 319 320 320 322 321 311 307 311 319 329 341 295 253 271 235 225 214 192 215 233 249 241 248 268 296 256 242 283 309 302 116 103 85 121 87 93 63 90 76 116 106
298 305 308 315 316 314 315 315 316 313 306 308 316 326 272 264 259 247 234 235 216 195 231 240 243 235 274 301 311 301 310 309 297 284 84 106 146 80 182 129 149 113 101 114 122
303 297 302 307 313 317 312 312 309 310 309 301 310 317 250 242 260 226 272 261 237 214 229 251 254 312 333 319 321 313 288 288 279 204 146 131 35 19 202 135 161 127 143 125 134
300 301 297 301 308 313 316 313 306 302 304 296 300 287 253 265 271 275 264 263 245 239 241 260 323 352 332 291 313 304 311 271 273 201 144 103 136 74 191 143 144 156 163 146 166
300 299 301 302 301 309 313 311 300 300 299 289 281 208 263 300 247 253 235 238 230 240 246 266 287 237 296 265 307 265 255 260 287 183 149 122 211 237 175 172 156 165 168 164 181
303 303 299 297 305 308 313 312 296 292 290 239 255 266 263 253 240 238 226 243 221 203 242 242 267 227 292 159 239 263 269 291 122 251 121 155 203 251 193 151 167 177 173 167 165
292 301 306 301 300 305 318 336 4 67 201 215 191 241 298 290 317 193 209 230 236 191 202 216 196 236 236 230 237 258 274 282 191 240 180 198 190 206 215 116 179 187 171 179 171
282 291 302 306 300 300 302 262 257 10 290 247 247 251 255 265 281 288 192 194 211 226 185 236 226 228 239 252 254 262 269 296 43 222 188 206 213 205 212 216 189 166 169 174 159
279 281 294 309 305 287 266 253 300 312 282 279 239 233 233 227 246 254 195 201 201 228 212 212 230 220 238 251 254 273 244 286 241 207 256 286 310 181 231 216 190 171 178 177 164
271 275 279 307 295 295 262 335 297 279 283 265 229 242 220 208 242 226 242 190 221 221 232 238 232 247 257 247 217 277 269 286 321 359 256 144 287 183 197 204 196 185 184 186 185
263 265 265 274 293 307 337 331 329 192 300 255 205 179 177 177 148 208 218 224 202 224 193 234 253 236 250 247 237 245 221 229 284 314 342 298 76 294 177 191 195 192 193 194 186
257 252 250 258 259 262 301 316 317 115 243 263 156 169 141 189 231 343 180 208 210 219 242 251 235 244 242 244 219 253 179 258 298 229 307 268 226 258 183 196 195 188 194 186 184
252 245 231 221 244 279 323 309 184 215 206 231 190 160 188 190 210 225 203 199 206 208 231 251 255 252 255 231 225 256 140 307 332 341 239 348 355 250 213 203 188 198 191 192 179
244 238 231 226 237 273 311 242 231 217 240 333 106 303 182 193 206 213 220 230 219 215 189 229 253 238 234 209 200 228 165 152 218 210 314 360 267 278 204 210 246 195 197 189 191
236 236 222 226 227 252 240 206 228 204 200 242 277 298 212 188 204 196 220 229 233 212 215 205 239 261 235 226 171 249 184 170 107 47 52 258 273 308 253 221 137 130 137 194 197
222 215 207 213 220 208 239 235 239 229 282 287 287 279 311 216 193 197 192 209 229 209 208 252 251 237 253 218 222 193 168 135 80 123 226 252 257 265 324 319 12 148 183 214 164
201 213 189 203 198 205 221 226 233 246 264 294 262 264 284 295 320 284 213 230 231 203 202 213 237 283 181 192 208 189 224 223 150 170 195 207 239 206 192 221 315 264 158 164 145
188 211 179 175 198 207 228 212 242 240 224 250 304 278 267 284 301 298 262 301 241 210 208 205 187 229 252 252 245 236 199 186 148 246 195 155 250 158 183 248 242 271 198 165 159
187 139 183 170 206 215 233 235 251 265 262 260 246 245 262 271 286 298 331 324 339 314 225 206 224 244 265 245 279 228 214 204 212 159 214 166 250 234 220 236 243 227 340 217 163
150 170 180 202 224 216 216 233 234 244 236 256 274 265 268 279 267 270 298 309 356 318 348 216 202 216 226 186 185 253 248 233 226 166 221 202 219 276 260 216 230 112 12 30 265
164 213 186 201 211 219 213 218 226 229 233 217 254 251 243 252 279 259 263 355 333 324 334 299 220 234 219 197 226 218 226 232 236 226 210 226 211 240 231 244 202 119 11 306 229
166 185 189 229 201 206 225 225 228 210 217 215 232 247 247 248 249 272 167 131 104 340 327 327 283 188 243 200 219 250 269 234 246 224 227 229 241 242 246 183 184 175 197 217 203
165 215 178 201 192 195 216 226 228 215 254 234 225 235 247 242 258 298 92 134 133 86 330 315 344 178 224 211 248 267 239 254 235 253 249 213 223 236 224 188 194 212 214 199 184